Погода в Короче

Россия / Белгородская область     50°48′39″N   37°11′41″E
темп.,
°C
ветер,
м/с
пор.,
м/с
влажн.,
%
обл.,
%
осадки,
мм/ч
давл.,
гПа
погр.,
м
11 мая, вт
вт1100:00+8ссв101888100 0.2 1016677
03:00+8ссв8189197 0.2 1015511
06:00+9ссв81889100 0.1 1015637
09:00+10св71292100 0.1 10161015
12:00+10всв6983100 0.1 10181044
15:00+12всв101263100 0.3 10191584
18:00+10всв9157417 0.1 10191437
21:00+7всв9148292 0.1 10201094
12 мая, ср
ср1200:00+8в8168689 0.2 10221212
03:00+7в81683100 0.3 1021739
06:00+7всв61482100 0.0 1021531
09:00+10в71174100 0.0 10211130
12:00+10всв61183100 0.3 1019871
15:00+9всв3788100 2.1 1017323
18:00+10юв5988100 3.0 1016754
21:00+8юв48965 4.4 1016207
13 мая, чт
чт1300:00+7ююв411965 0.6 1017287
03:00+6юв379433 0.6 1017119
06:00+7вюв3696100 0.0 1017162
09:00+10вюв3889100 0.2 1017339
12:00+15юв577439 0.5 1016773
15:00+16ююв477899 1.2 1015609
18:00+17юв377757 2.6 1015294
21:00+14в3585100 2.7 101572
14 мая, пт
пт1400:00+14вюв41287100 0.0 1014242
03:00+12вюв499316 0.0 1014162
06:00+13вюв4119378 0.8 1014245
09:00+18юв6118229 0.8 1013502
12:00+23ююв686414 0.0 10121256
15:00+24ююв68605 0.0 10121524
18:00+23юв487394 0.0 1011314
21:00+19вюв4981100 0.2 1010146
15 мая, сб
сб1500:00+17з1192100 5.4 101118
03:00+16юз2296100 9.5 101162
06:00+16всв3494100 0.8 100988
09:00+20ю45740 0.8 1010625
12:00+22ю56655 0.0 10111154
15:00+21ююз5771100 1.4 10111120
18:00+20юз5875100 0.6 1011651
21:00+15зюз3390100 0.7 101253